Volver al catálogo

TITAN 3C TRANSTAGE DEB

LostMEO
NORAD 43448·DEBRIS·🇺🇸 United States

Lanzado Feb 9, 1969 desde Cape Canaveral Space Force Station

Loading…

Próximos Pases (próximas 24 horas)

TLE

ObsoletoSource: Space-Track

Época: Aug 11, 2026, 19:05 UTC

1 43448U 69013H   26223.79576489  .00000002  00000-0  00000-0 0  9994
2 43448   1.2999 102.2905 0284724  45.0060 317.1371  0.98710960 30091

Sigue TITAN 3C TRANSTAGE DEB en tiempo real con AllMySat

Download on the App Store